NQ2U-13 Weather Reports


time (UTC)temp
C
wind
direction
speed
KPH
gust
KPH
rain 1hr
cm
rain 24hr
cm
rain mn
cm
humidity
%
barometer
mb
20260506231544 9 0 0.0 0.0 0.03 1.37 1.27 90 1007.7
20260506231031 9 0 0.0 0.0 0.03 1.37 1.27 90 1007.3
20260506230531 9 0 0.0 0.0 0.03 1.37 1.27 90 1007.4
20260506230046 10 0 0.0 0.0 0.03 1.37 1.27 89 1007.5
20260506225530 10 0 0.0 0.0 0.03 1.37 1.27 89 1007.5
20260506225030 10 0 0.0 0.0 0.05 1.37 1.27 89 1007.5
20260506224541 10 0 0.0 0.0 0.05 1.37 1.27 90 1007.6
20260506224031 10 0 0.0 1.6 0.05 1.37 1.27 90 1007.6
20260506223530 10 0 0.0 4.8 0.05 1.37 1.27 89 1007.4
20260506223045 10 287 1.6 14.5 0.03 1.32 1.24 89 1007.3
20260506222530 10 298 3.2 14.5 0.03 1.32 1.24 90 1007.2
20260506222031 10 0 1.6 9.7 0.03 1.32 1.24 90 1007.0
20260506221547 10 50 3.2 9.7 0.05 1.32 1.24 90 1006.9
20260506221031 10 323 3.2 8.0 0.05 1.32 1.24 91 1006.8
20260506220531 10 260 0.0 4.8 0.05 1.32 1.24 92 1006.7
20260506220049 10 0 0.0 6.4 0.05 1.32 1.24 92 1006.5
20260506215530 10 0 1.6 6.4 0.05 1.32 1.24 92 1006.4
20260506215031 10 331 3.2 8.0 0.05 1.32 1.22 92 1006.3
20260506214539 10 63 1.6 8.0 0.05 1.32 1.22 92 1006.1
20260506214031 10 0 1.6 8.0 0.05 1.32 1.22 92 1006.0
20260506213531 10 0 0.0 8.0 0.05 1.32 1.22 92 1005.9
20260506213043 10 75 1.6 9.7 0.05 1.32 1.22 92 1005.7
20260506212532 10 0 1.6 9.7 0.05 1.32 1.22 92 1005.6
20260506212031 10 316 3.2 12.9 0.05 1.30 1.19 93 1005.4
20260506211548 10 229 1.6 12.9 0.05 1.30 1.19 93 1005.6
20260506211031 10 46 3.2 12.9 0.05 1.30 1.19 93 1005.5
20260506210530 10 177 1.6 11.3 0.05 1.30 1.19 93 1005.3
20260506210043 10 345 0.0 9.7 0.08 1.30 1.19 93 1005.3
20260506205531 10 27 1.6 9.7 0.08 1.30 1.19 93 1005.1
20260506205031 10 327 1.6 11.3 0.05 1.27 1.17 93 1005.0
20260506204548 11 94 3.2 14.5 0.05 1.27 1.17 92 1004.9
20260506204030 11 36 3.2 14.5 0.08 1.27 1.17 92 1004.8
20260506203533 11 290 6.4 14.5 0.08 1.27 1.17 92 1004.8
20260506203045 11 33 3.2 12.9 0.08 1.27 1.17 92 1004.6
20260506202532 11 42 3.2 12.9 0.05 1.24 1.14 92 1004.6
20260506202031 11 336 1.6 16.1 0.08 1.24 1.14 92 1004.5
20260506201545 11 29 4.8 16.1 0.08 1.24 1.14 92 1004.4
20260506201030 11 63 3.2 12.9 0.08 1.24 1.14 92 1004.3
20260506200530 12 100 3.2 9.7 0.10 1.24 1.14 92 1004.3
20260506200043 12 331 1.6 12.9 0.08 1.22 1.12 91 1004.1
20260506195530 13 305 1.6 12.9 0.08 1.22 1.12 91 1004.1
20260506195032 14 302 4.8 12.9 0.10 1.22 1.12 90 1003.9
20260506194539 16 0 0.0 0.0 0.10 1.22 1.12 94 1003.8
20260506194031 16 0 0.0 1.6 0.10 1.19 1.09 94 1003.9
20260506193530 16 0 0.0 1.6 0.10 1.19 1.09 94 1004.0
20260506193039 16 0 0.0 1.6 0.10 1.19 1.09 93 1004.0
20260506192530 16 0 0.0 0.0 0.13 1.19 1.09 92 1004.0
20260506192030 16 0 0.0 1.6 0.10 1.17 1.07 93 1003.9
20260506191535 16 0 0.0 1.6 0.13 1.17 1.07 92 1004.0
20260506191031 16 0 0.0 3.2 0.13 1.17 1.07 93 1004.0
20260506190531 16 0 0.0 3.2 0.13 1.14 1.04 93 1004.0
20260506190043 16 0 0.0 1.6 0.13 1.14 1.04 92 1004.1
20260506185531 16 0 0.0 1.6 0.13 1.14 1.04 93 1004.2
20260506185030 16 0 0.0 1.6 0.13 1.12 1.02 93 1004.1
20260506184544 16 143 0.0 3.2 0.13 1.12 1.02 93 1004.2
20260506184030 16 0 0.0 3.2 0.13 1.09 0.99 94 1004.2
20260506183531 16 0 0.0 0.0 0.13 1.09 0.99 94 1004.2
20260506183037 16 0 0.0 1.6 0.15 1.09 0.99 94 1004.3
20260506182530 16 0 0.0 1.6 0.13 1.07 0.97 95 1004.3
20260506182034 16 0 0.0 1.6 0.15 1.07 0.97 95 1004.3
20260506181539 15 0 0.0 4.8 0.13 1.04 0.94 95 1004.4
20260506181031 15 0 0.0 4.8 0.15 1.04 0.94 95 1004.5
20260506180534 15 0 0.0 4.8 0.13 1.02 0.91 95 1004.5
20260506180045 15 0 0.0 1.6 0.15 1.02 0.91 95 1004.6
20260506175532 15 0 0.0 1.6 0.13 0.99 0.89 95 1004.6
20260506175030 15 0 0.0 1.6 0.15 0.99 0.89 95 1004.6
20260506174554 15 0 0.0 0.0 0.15 0.99 0.89 95 1004.7
20260506174032 15 0 0.0 0.0 0.15 0.97 0.86 94 1004.6
20260506173529 15 0 0.0 0.0 0.15 0.97 0.86 95 1004.6
20260506173041 15 0 0.0 0.0 0.13 0.94 0.84 95 1004.6
20260506172530 15 0 0.0 0.0 0.15 0.94 0.84 95 1004.6
20260506172032 15 0 0.0 0.0 0.13 0.91 0.81 95 1004.6
20260506171537 15 0 0.0 0.0 0.15 0.91 0.81 95 1004.6
20260506171032 15 0 0.0 0.0 0.13 0.89 0.79 95 1004.7
20260506170530 15 0 0.0 0.0 0.15 0.89 0.79 95 1004.6
20260506170037 14 0 0.0 0.0 0.13 0.86 0.76 96 1004.7
20260506165531 14 0 0.0 0.0 0.13 0.86 0.76 95 1004.8
20260506165031 14 0 0.0 0.0 0.13 0.84 0.74 96 1004.7
20260506164539 13 0 0.0 0.0 0.13 0.84 0.74 95 1004.8
20260506164033 13 0 0.0 0.0 0.13 0.81 0.71 95 1004.9
20260506163532 13 0 0.0 0.0 0.13 0.81 0.71 95 1004.9
20260506163049 13 0 0.0 1.6 0.15 0.81 0.71 95 1005.0
20260506162531 13 0 0.0 1.6 0.13 0.79 0.69 95 1004.9
20260506162030 13 132 0.0 1.6 0.15 0.79 0.69 95 1004.9
20260506161546 13 0 0.0 1.6 0.13 0.76 0.66 95 1005.0
20260506161031 13 0 0.0 1.6 0.15 0.76 0.66 95 1005.0
20260506160531 13 0 0.0 0.0 0.13 0.74 0.64 95 1005.0
20260506160049 13 0 0.0 1.6 0.15 0.74 0.64 95 1005.0
20260506155531 13 0 0.0 1.6 0.15 0.74 0.64 95 1004.9
20260506155031 13 0 0.0 1.6 0.15 0.71 0.61 95 1005.0
20260506154541 13 0 0.0 1.6 0.15 0.71 0.61 95 1004.9
20260506154031 13 0 0.0 1.6 0.15 0.69 0.58 95 1005.1
20260506153530 13 0 0.0 0.0 0.15 0.69 0.58 95 1005.1
20260506153046 13 0 0.0 0.0 0.15 0.66 0.56 95 1005.2
20260506152530 13 0 0.0 0.0 0.15 0.66 0.56 95 1005.3
20260506152033 12 0 0.0 0.0 0.15 0.64 0.53 96 1005.4
20260506151543 12 0 0.0 0.0 0.15 0.64 0.53 95 1005.4
20260506151030 12 0 0.0 1.6 0.15 0.61 0.51 94 1005.5
20260506150530 12 0 0.0 1.6 0.15 0.61 0.51 95 1005.6
20260506150053 12 0 0.0 0.0 0.15 0.58 0.48 95 1005.7
20260506145533 12 0 0.0 0.0 0.15 0.58 0.48 95 1005.7
20260506145030 12 0 0.0 1.6 0.13 0.56 0.46 95 1005.8
20260506144558 12 0 0.0 1.6 0.15 0.56 0.46 95 1005.8
20260506144031 12 0 0.0 3.2 0.13 0.53 0.43 95 1005.7
20260506143531 12 202 0.0 3.2 0.13 0.53 0.43 95 1005.9
20260506143049 12 0 0.0 1.6 0.10 0.51 0.41 95 1006.1
20260506142530 12 0 0.0 1.6 0.10 0.51 0.41 95 1006.4
20260506142031 12 0 0.0 1.6 0.10 0.48 0.38 95 1006.4
20260506141545 12 0 0.0 0.0 0.10 0.48 0.38 95 1006.3
20260506141033 12 0 0.0 0.0 0.08 0.46 0.36 95 1006.4
20260506140530 12 0 0.0 0.0 0.10 0.46 0.36 95 1006.4
20260506140058 12 0 0.0 1.6 0.08 0.43 0.33 95 1006.5
20260506135530 12 0 0.0 1.6 0.08 0.43 0.33 95 1006.6
20260506135030 12 0 0.0 0.0 0.10 0.43 0.33 95 1006.7
20260506134544 12 0 0.0 0.0 0.08 0.41 0.30 95 1006.7
20260506134032 12 0 0.0 0.0 0.10 0.41 0.30 95 1006.4
20260506133530 11 0 0.0 0.0 0.10 0.41 0.30 95 1006.4
20260506133043 11 0 0.0 0.0 0.13 0.41 0.30 95 1006.3
20260506132531 11 0 0.0 0.0 0.13 0.41 0.30 95 1006.3
20260506132031 11 0 0.0 0.0 0.13 0.38 0.28 95 1006.3
20260506131547 11 0 0.0 0.0 0.13 0.38 0.28 95 1006.4
20260506131031 11 0 0.0 0.0 0.15 0.38 0.28 95 1006.2
20260506130531 11 0 0.0 0.0 0.13 0.36 0.25 95 1006.2
20260506130114 11 0 0.0 1.6 0.15 0.36 0.25 95 1006.2
20260506125530 11 0 0.0 1.6 0.15 0.36 0.25 95 1005.9
20260506125031 11 0 0.0 1.6 0.15 0.33 0.23 95 1006.0
20260506124538 11 0 0.0 1.6 0.18 0.33 0.23 95 1006.2
20260506124031 11 0 0.0 3.2 0.15 0.30 0.20 95 1006.3
20260506123531 11 0 0.0 3.2 0.18 0.30 0.20 95 1006.5
20260506123046 11 0 0.0 1.6 0.15 0.28 0.18 95 1006.6
20260506122530 11 0 0.0 1.6 0.15 0.28 0.18 95 1006.6
20260506122031 11 0 0.0 1.6 0.13 0.25 0.15 95 1006.6
20260506121550 11 0 0.0 1.6 0.13 0.25 0.15 95 1006.7
20260506121030 11 0 0.0 0.0 0.13 0.23 0.13 95 1006.9
20260506120531 11 0 0.0 0.0 0.13 0.23 0.13 95 1007.1
20260506120039 11 0 0.0 0.0 0.10 0.20 0.10 95 1007.2
20260506115531 11 0 0.0 0.0 0.08 0.18 0.08 95 1007.3
20260506115030 11 0 0.0 0.0 0.08 0.18 0.08 95 1007.3
20260506114538 11 0 0.0 0.0 0.05 0.15 0.05 95 1007.2
20260506114030 11 0 0.0 0.0 0.05 0.15 0.05 95 1007.3
20260506113530 11 0 0.0 0.0 0.03 0.13 0.03 95 1007.2
20260506113039 11 0 0.0 0.0 0.03 0.13 0.03 95 1007.1
20260506112530 11 0 0.0 0.0 0.03 0.13 0.03 95 1007.0
20260506112030 11 0 0.0 0.0 0.03 0.13 0.03 95 1007.0
20260506111538 11 0 0.0 0.0 0.03 0.13 0.03 95 1007.1
20260506111030 11 0 0.0 0.0 0.00 0.10 0.00 95 1007.0
20260506110531 11 0 0.0 0.0 0.00 0.10 0.00 95 1006.7
20260506110042 11 0 0.0 0.0 0.00 0.10 0.00 95 1006.7
20260506105531 11 0 0.0 0.0 0.00 0.10 0.00 95 1006.7
20260506105031 11 0 0.0 0.0 0.00 0.10 0.00 95 1006.9
20260506104538 11 0 0.0 0.0 0.00 0.10 0.00 95 1006.8
20260506104032 11 0 0.0 0.0 0.00 0.10 0.00 95 1006.9
20260506103530 11 0 0.0 0.0 0.00 0.10 0.00 95 1006.8
20260506103044 10 0 0.0 0.0 0.00 0.10 0.00 95 1006.8
20260506102531 10 0 0.0 0.0 0.00 0.10 0.00 95 1006.8
20260506102031 10 0 0.0 0.0 0.00 0.10 0.00 95 1006.8
20260506101544 10 0 0.0 0.0 0.00 0.10 0.00 95 1006.8
20260506101030 10 0 0.0 0.0 0.00 0.10 0.00 95 1006.8
20260506100530 10 0 0.0 0.0 0.00 0.10 0.00 95 1006.7
20260506100055 10 0 0.0 0.0 0.00 0.10 0.00 95 1006.6
20260506095530 10 0 0.0 0.0 0.00 0.36 0.00 95 1006.7
20260506095030 10 0 0.0 0.0 0.00 0.36 0.00 95 1006.7
20260506094541 10 0 0.0 0.0 0.00 0.36 0.00 95 1006.7
20260506094031 10 0 0.0 0.0 0.00 0.36 0.00 94 1006.7
20260506093531 10 0 0.0 0.0 0.00 0.36 0.00 94 1006.4
20260506093037 10 0 0.0 3.2 0.00 0.36 0.00 94 1006.5
20260506092531 10 0 0.0 3.2 0.00 0.36 0.00 94 1006.6
20260506092031 10 0 0.0 0.0 0.00 0.36 0.00 94 1006.6
20260506091543 10 0 0.0 0.0 0.00 0.36 0.00 94 1006.6
20260506091034 10 0 0.0 0.0 0.00 0.36 0.00 94 1006.6
20260506090531 10 0 0.0 0.0 0.00 0.36 0.00 94 1006.4
20260506090044 10 0 0.0 0.0 0.00 0.36 0.00 94 1006.5
20260506085530 10 0 0.0 0.0 0.00 0.36 0.00 94 1006.7
20260506085033 10 0 0.0 0.0 0.00 0.36 0.00 94 1006.9
20260506084546 11 0 0.0 0.0 0.00 0.36 0.00 94 1006.9
20260506084031 10 0 0.0 0.0 0.00 0.36 0.00 94 1007.0
20260506083532 10 0 0.0 0.0 0.00 0.36 0.00 94 1007.0
20260506083053 10 0 0.0 0.0 0.00 0.36 0.00 94 1007.1
20260506082531 10 0 0.0 0.0 0.00 0.36 0.00 94 1007.1
20260506082031 10 0 0.0 0.0 0.00 0.36 0.00 94 1007.2
20260506081601 10 0 0.0 0.0 0.00 0.36 0.00 94 1007.2
20260506081031 10 0 0.0 0.0 0.00 0.36 0.00 94 1007.3
20260506080531 10 0 0.0 0.0 0.00 0.36 0.00 93 1007.4
20260506073043 11 0 0.0 0.0 0.00 0.36 0.00 92 1007.6
20260506072532 11 0 0.0 0.0 0.00 0.36 0.00 92 1007.5
20260506072034 11 0 0.0 0.0 0.00 0.36 0.00 92 1007.6
20260506071543 11 0 0.0 0.0 0.00 0.36 0.00 92 1007.5
20260506071031 11 0 0.0 0.0 0.00 0.36 0.00 92 1007.6
20260506070531 11 0 0.0 1.6 0.00 0.36 0.00 92 1007.5
20260506062031 11 0 0.0 1.6 0.00 0.36 0.00 92 1008.1
20260506061547 11 0 0.0 0.0 0.00 0.36 0.00 92 1008.0
20260506061032 11 0 0.0 0.0 0.00 0.36 0.00 92 1008.0
20260506060531 11 0 0.0 0.0 0.00 0.36 0.00 92 1008.2
20260506051031 11 0 0.0 0.0 0.00 0.36 0.00 92 1008.6
20260506050531 11 0 0.0 0.0 0.00 0.36 0.00 92 1008.5
20260506045031 11 0 0.0 0.0 0.05 0.36 0.00 92 1008.7
20260506044549 11 0 0.0 0.0 0.10 0.36 0.00 91 1008.8
20260506044030 11 0 0.0 0.0 0.10 0.36 0.00 91 1008.8
20260506043530 11 0 0.0 0.0 0.10 0.36 0.00 91 1008.8
20260506043043 12 0 0.0 0.0 0.10 0.36 0.00 91 1008.8
20260506042532 12 0 0.0 0.0 0.10 0.36 0.00 90 1008.7
20260506042031 12 0 0.0 0.0 0.10 0.36 0.00 90 1008.7
20260506041542 12 0 0.0 0.0 0.10 0.36 0.00 89 1008.8
20260506041031 12 0 0.0 0.0 0.10 0.36 0.00 88 1008.8
20260506040533 12 0 0.0 0.0 0.10 0.36 0.00 88 1008.8
20260506040037 12 0 0.0 0.0 0.10 0.36 0.00 87 1008.8
20260506035531 12 0 0.0 0.0 0.08 0.33 0.33 85 1008.9
20260506035030 13 0 0.0 0.0 0.03 0.28 0.28 84 1008.8
20260506034602 13 0 0.0 0.0 0.00 0.25 0.25 82 1009.1
20260506034032 13 0 0.0 6.4 0.00 0.25 0.25 83 1008.7
20260506033553 13 0 0.0 6.4 0.00 0.25 0.25 82 1008.8
20260506033039 13 69 1.6 6.4 0.00 0.25 0.25 81 1008.9
20260506032531 13 328 1.6 6.4 0.00 0.25 0.25 80 1008.7
20260506032031 13 47 1.6 4.8 0.00 0.25 0.25 80 1008.5
20260506031547 13 0 0.0 12.9 0.00 0.25 0.25 79 1009.1
20260506031032 14 39 3.2 12.9 0.00 0.25 0.25 78 1008.8
20260506030531 14 21 3.2 11.3 0.00 0.25 0.25 78 1008.6
20260506030039 14 69 1.6 9.7 0.00 0.25 0.25 78 1008.7
20260506025530 14 2 1.6 9.7 0.00 0.25 0.25 78 1008.5
20260506025030 15 111 1.6 12.9 0.00 0.25 0.25 79 1008.4
20260506024536 15 7 1.6 12.9 0.00 0.25 0.25 79 1008.2
20260506024030 15 16 1.6 11.3 0.00 0.25 0.25 79 1008.1
20260506023531 15 80 3.2 12.9 0.00 0.25 0.25 79 1007.9
20260506023044 15 0 0.0 12.9 0.00 0.25 0.25 82 1008.2
20260506022531 15 46 1.6 9.7 0.00 0.25 0.25 85 1008.1
20260506022031 16 0 3.2 9.7 0.00 0.25 0.25 86 1008.1
20260506021539 16 0 0.0 0.0 0.00 0.25 0.25 86 1007.7
20260506021032 16 0 0.0 0.0 0.00 0.25 0.25 86 1007.7
20260506020530 16 0 0.0 0.0 0.00 0.25 0.25 85 1007.7
20260506020039 16 0 0.0 0.0 0.00 0.25 0.25 85 1007.7
20260506015531 16 0 0.0 1.6 0.00 0.25 0.25 85 1007.6
20260506015031 16 0 0.0 1.6 0.00 0.25 0.25 85 1007.4
20260506014545 16 0 0.0 1.6 0.00 0.25 0.25 84 1007.3
20260506014030 16 0 0.0 1.6 0.00 0.25 0.25 83 1007.3
20260506013530 16 0 0.0 1.6 0.00 0.25 0.25 82 1007.2
20260506013043 16 0 0.0 3.2 0.00 0.25 0.25 81 1007.2
20260506012531 16 0 0.0 3.2 0.00 0.25 0.25 82 1007.0
20260506012032 16 0 0.0 1.6 0.00 0.25 0.25 81 1006.9
20260506011544 16 0 0.0 1.6 0.00 0.25 0.25 80 1006.8
20260506011030 16 0 0.0 1.6 0.00 0.25 0.25 80 1006.8
20260506010531 17 0 0.0 0.0 0.00 0.25 0.25 81 1006.7
20260506010052 17 0 0.0 3.2 0.00 0.25 0.25 80 1006.7
20260506005530 17 0 0.0 3.2 0.00 0.25 0.25 80 1006.7
20260506005030 17 0 0.0 3.2 0.00 0.25 0.25 79 1006.8
20260506004544 17 0 0.0 0.0 0.00 0.25 0.25 78 1006.9
20260506004031 17 0 0.0 0.0 0.00 0.25 0.25 79 1006.7
20260506003530 17 0 0.0 0.0 0.00 0.25 0.25 77 1006.6
20260506003035 17 0 0.0 0.0 0.00 0.25 0.25 77 1006.5
20260506002533 17 0 0.0 0.0 0.00 0.25 0.25 77 1006.4
20260506002031 17 0 0.0 0.0 0.00 0.25 0.25 78 1006.4
20260506001546 17 0 0.0 3.2 0.00 0.25 0.25 76 1006.5
20260506001031 18 0 0.0 3.2 0.00 0.25 0.25 74 1006.4
20260506000531 18 0 0.0 3.2 0.00 0.25 0.25 73 1006.5
20260506000039 18 0 0.0 4.8 0.00 0.25 0.25 70 1006.8
20260505235531 18 192 0.0 4.8 0.00 0.25 0.25 69 1006.6
20260505235033 18 0 0.0 4.8 0.00 0.25 0.25 69 1006.1
20260505234536 18 0 0.0 3.2 0.00 0.25 0.25 68 1006.1
20260505234031 18 0 0.0 3.2 0.00 0.25 0.25 68 1006.0
20260505233530 18 178 0.0 6.4 0.00 0.25 0.25 67 1005.9
20260505233045 18 0 0.0 6.4 0.00 0.25 0.25 67 1005.9
20260505232530 18 0 0.0 4.8 0.00 0.25 0.25 67 1005.9
20260505232030 19 0 0.0 6.4 0.00 0.25 0.25 67 1005.8